Location: ????????
(55.7667°N, 37.4833°E)
Time: 06:29:12
(UTC+00:00)

CZ-2D R/B - Pass Details

Date: 19 May 2025
Orbit: 790 x 841 km, 98.8° (Epoch: 15 June)

Event Time Altitude Azimuth Distance (km) Brightness Sun altitude
Rises 23:45:50 0° 18° (NNE) 3,404 7.1 -8.7°
Reaches altitude 10° 23:48:15 10° 22° (NNE) 2,469 6.2 -8.5°
Maximum altitude 23:53:40 59° 102° (ESE) 976 2.7 -8.1°
Drops below altitude 10° 23:59:03 10° 182° (S) 2,456 4.1 -7.7°
Enters shadow 00:00:23 - 184° (S) 2,974 4.5 -7.6°
